DW9996 Weather Reports


Display with metric or nautical units.
time (UTC)temp
F
wind
direction
speed
MPH
gust
MPH
rain 1hr
in
rain 24hr
in
rain mn
in
humidity
%
barometer
mb
20260902041512 67 167 0.0 4.0 0.00 0.00 0.00 43 1003.4
20260902040013 67 169 2.0 5.0 0.00 0.00 0.00 43 1003.5
20260902034513 68 164 0.0 5.0 0.00 0.00 0.00 41 1003.6
20260902033022 69 190 3.0 7.0 0.00 0.00 0.00 40 1003.6
20260902031511 70 192 5.0 8.0 0.00 0.00 0.00 39 1003.6
20260902030009 70 189 5.0 8.0 0.00 0.00 0.00 39 1003.5
20260902024509 70 175 5.0 7.0 0.00 0.00 0.00 38 1003.4
20260902023008 71 201 5.0 7.0 0.00 0.00 0.00 36 1003.4
20260902021522 74 179 0.0 2.0 0.00 0.00 0.00 30 1003.4
20260902020011 75 149 0.0 1.0 0.00 0.00 0.00 29 1003.4
20260902014507 77 149 0.0 2.0 0.00 0.00 0.00 27 1003.4
20260902013006 79 135 1.0 4.0 0.00 0.00 0.00 26 1003.5
20260902011505 81 134 3.0 8.0 0.00 0.00 0.00 25 1003.5
20260902010010 82 124 3.0 8.0 0.00 0.00 0.00 24 1003.4
20260902004512 82 117 4.0 9.0 0.00 0.00 0.00 23 1003.4
20260902003004 83 108 3.0 8.0 0.00 0.00 0.00 23 1003.5
20260902001503 83 136 4.0 8.0 0.00 0.00 0.00 23 1003.5
20260902000001 83 151 3.0 10.0 0.00 0.00 0.00 23 1003.7
20260901234601 84 117 5.0 11.0 0.00 0.00 0.00 21 1003.8
20260901233102 84 134 6.0 11.0 0.00 0.00 0.00 21 1003.9
20260901231558 84 124 6.0 11.0 0.00 0.00 0.00 22 1004.1
20260901230056 84 146 5.0 11.0 0.00 0.00 0.00 22 1004.3
20260901224557 82 134 4.0 10.0 0.00 0.00 0.00 23 1004.4
20260901223053 83 132 5.0 12.0 0.00 0.00 0.00 23 1004.6
20260901221551 84 119 6.0 12.0 0.00 0.00 0.00 22 1004.8
20260901220049 83 129 3.0 9.0 0.00 0.00 0.00 22 1004.9
20260901214552 82 155 5.0 11.0 0.00 0.00 0.00 22 1005.1
20260901213046 84 114 7.0 14.0 0.00 0.00 0.00 21 1005.3
20260901211545 84 176 6.0 16.0 0.00 0.00 0.00 23 1005.4
20260901210044 84 195 8.0 16.0 0.00 0.00 0.00 22 1005.4
20260901204539 83 106 7.0 13.0 0.00 0.00 0.00 24 1005.6
20260901203041 82 125 8.0 13.0 0.00 0.00 0.00 25 1005.9
20260901201532 80 107 7.0 9.0 0.00 0.00 0.00 26 1006.1
20260901200030 79 111 1.0 12.0 0.00 0.00 0.00 28 1006.3
20260901194529 79 210 2.0 8.0 0.00 0.00 0.00 28 1006.5
20260901193025 78 112 4.0 11.0 0.00 0.00 0.00 30 1006.8
20260901191523 77 90 6.0 11.0 0.00 0.00 0.00 29 1006.9
20260901190031 78 134 4.0 8.0 0.00 0.00 0.00 29 1007.1
20260901184526 77 114 4.0 15.0 0.00 0.00 0.00 31 1007.4
20260901183015 76 90 7.0 14.0 0.00 0.00 0.00 32 1007.6
20260901181524 76 132 6.0 13.0 0.00 0.00 0.00 33 1007.7
20260901180015 77 137 7.0 10.0 0.00 0.00 0.00 32 1007.7
20260901174515 77 112 3.0 11.0 0.00 0.00 0.00 31 1007.8
20260901173019 75 160 6.0 11.0 0.00 0.00 0.00 34 1008.0
20260901171505 73 135 5.0 11.0 0.00 0.00 0.00 37 1008.1
20260901170003 73 124 7.0 11.0 0.00 0.00 0.00 37 1008.3
20260901164600 71 168 2.0 8.0 0.00 0.00 0.00 41 1008.5
20260901163059 70 125 3.0 7.0 0.00 0.00 0.00 41 1008.6
20260901161552 69 148 3.0 6.0 0.00 0.00 0.00 44 1008.7
20260901160050 68 145 0.0 3.0 0.00 0.00 0.00 47 1008.9
20260901154546 65 316 0.0 3.0 0.00 0.00 0.00 52 1009.1
20260901153042 64 300 1.0 4.0 0.00 0.00 0.00 55 1009.1
20260901151542 62 301 0.0 0.0 0.00 0.00 0.00 60 1009.0
20260901150035 59 287 0.0 3.0 0.00 0.00 0.00 64 1009.1
20260901144533 58 299 1.0 4.0 0.00 0.00 0.00 67 1009.1
20260901143032 55 315 0.0 5.0 0.00 0.00 0.00 71 1009.1
20260901141531 53 336 1.0 4.0 0.00 0.00 0.00 75 1009.1
20260901140033 50 308 1.0 3.0 0.00 0.00 0.00 75 1009.0
20260901134534 48 306 1.0 4.0 0.00 0.00 0.00 75 1009.0
20260901133029 46 308 2.0 4.0 0.00 0.00 0.00 74 1009.0
20260901131534 44 313 1.0 4.0 0.00 0.00 0.00 75 1009.0
20260901130032 44 317 1.0 4.0 0.00 0.00 0.00 74 1009.0
20260901124528 43 305 1.0 3.0 0.00 0.00 0.00 75 1008.8
20260901123028 43 313 2.0 4.0 0.00 0.00 0.00 75 1008.7
20260901121529 43 312 2.0 5.0 0.00 0.00 0.00 76 1008.8
20260901120023 44 313 2.0 5.0 0.00 0.00 0.00 76 1008.9
20260901114520 46 309 0.0 2.0 0.00 0.00 0.00 74 1009.0
20260901113021 49 311 2.0 4.0 0.00 0.00 0.00 72 1009.1
20260901111518 50 323 2.0 6.0 0.00 0.00 0.00 72 1009.1
20260901110028 47 11 3.0 5.0 0.00 0.00 0.00 75 1008.8
20260901104514 44 311 1.0 3.0 0.00 0.00 0.00 74 1009.1
20260901103016 46 304 2.0 4.0 0.00 0.00 0.00 71 1009.1
20260901101519 49 304 1.0 2.0 0.00 0.00 0.00 68 1009.2
20260901100002 52 315 1.0 3.0 0.00 0.00 0.00 65 1009.1
20260901094600 54 355 1.0 3.0 0.00 0.00 0.00 64 1009.2
20260901093105 54 39 1.0 3.0 0.00 0.00 0.00 63 1009.2
20260901091607 54 40 1.0 3.0 0.00 0.00 0.00 62 1009.2
20260901090051 55 80 1.0 3.0 0.00 0.00 0.00 60 1009.4
20260901084548 56 87 0.0 0.0 0.00 0.00 0.00 59 1009.4
20260901083046 56 87 0.0 3.0 0.00 0.00 0.00 58 1009.3
20260901081544 57 188 0.0 0.0 0.00 0.00 0.00 57 1009.4
20260901080043 57 190 0.0 3.0 0.00 0.00 0.00 57 1009.5
20260901074538 58 190 1.0 3.0 0.00 0.00 0.00 55 1009.6
20260901073043 59 152 0.0 0.0 0.00 0.00 0.00 53 1009.5
20260901071535 59 152 1.0 2.0 0.00 0.00 0.00 54 1009.6
20260901070039 59 146 1.0 3.0 0.00 0.00 0.00 54 1009.6
20260901064541 59 166 2.0 3.0 0.00 0.00 0.00 53 1009.6
20260901063036 59 146 1.0 3.0 0.00 0.00 0.00 53 1009.7
20260901061530 59 144 0.0 3.0 0.00 0.00 0.00 53 1009.6
20260901060030 59 128 1.0 8.0 0.00 0.00 0.00 53 1009.7
20260901054528 59 138 2.0 5.0 0.00 0.00 0.00 53 1009.8
20260901053027 59 161 2.0 5.0 0.00 0.00 0.00 53 1009.9
20260901051528 59 161 2.0 4.0 0.00 0.00 0.00 49 1010.0
20260901050027 61 159 0.0 0.0 0.00 0.00 0.00 47 1010.0
20260901044526 62 159 0.0 0.0 0.00 0.00 0.00 45 1010.0
20260901043026 62 159 0.0 3.0 0.00 0.00 0.00 46 1010.0